TimeCST,TemperatureF,Dew PointF,Humidity,Sea Level PressureIn,VisibilityMPH,Wind Direction,Wind SpeedMPH,Gust SpeedMPH,PrecipitationIn,Events,Conditions,WindDirDegrees,DateUTC
12:15 AM,43.5,40.5,89,29.94,10.0,West,3.5,-,N/A,,Mostly Cloudy,280,2012-11-07 06:15:00
12:35 AM,43.7,40.3,88,29.94,10.0,West,3.5,-,N/A,,Overcast,270,2012-11-07 06:35:00
12:55 AM,44.1,40.5,87,29.93,10.0,Calm,Calm,-,N/A,,Overcast,0,2012-11-07 06:55:00
1:15 AM,44.2,40.1,85,29.93,10.0,West,3.5,-,N/A,,Overcast,270,2012-11-07 07:15:00
1:35 AM,44.6,40.1,84,29.93,10.0,West,3.5,-,N/A,,Overcast,270,2012-11-07 07:35:00
1:55 AM,45.1,40.6,84,29.93,10.0,WSW,5.8,-,N/A,,Overcast,250,2012-11-07 07:55:00
2:15 AM,45.0,40.6,85,29.93,10.0,West,3.5,-,N/A,,Overcast,260,2012-11-07 08:15:00
2:35 AM,45.0,41.2,87,29.93,10.0,WSW,4.6,-,N/A,,Overcast,250,2012-11-07 08:35:00
2:55 AM,45.1,41.0,85,29.93,10.0,WSW,4.6,-,N/A,,Overcast,250,2012-11-07 08:55:00
3:15 AM,45.3,41.2,85,29.92,10.0,West,3.5,-,N/A,,Overcast,260,2012-11-07 09:15:00
3:35 AM,45.5,41.2,85,29.93,10.0,West,3.5,-,N/A,,Overcast,270,2012-11-07 09:35:00
3:55 AM,45.5,41.4,85,29.93,10.0,Calm,Calm,-,N/A,,Overcast,0,2012-11-07 09:55:00
4:15 AM,45.0,41.7,88,29.93,10.0,Calm,Calm,-,N/A,,Overcast,0,2012-11-07 10:15:00
4:35 AM,45.1,41.7,88,29.93,10.0,Calm,Calm,-,N/A,,Overcast,0,2012-11-07 10:35:00
4:55 AM,45.5,41.5,86,29.93,10.0,Calm,Calm,-,N/A,,Overcast,0,2012-11-07 10:55:00
5:15 AM,45.1,41.2,86,29.93,10.0,West,3.5,-,N/A,,Overcast,280,2012-11-07 11:15:00
5:35 AM,45.0,41.4,87,29.94,10.0,West,4.6,-,N/A,,Overcast,280,2012-11-07 11:35:00
6:15 AM,44.6,41.4,88,29.95,10.0,West,3.5,-,N/A,,Mostly Cloudy,280,2012-11-07 12:15:00
7:15 AM,45.1,41.4,87,29.97,10.0,WNW,4.6,-,N/A,,Overcast,300,2012-11-07 13:15:00
7:55 AM,46.0,41.0,83,29.98,10.0,NW,6.9,-,N/A,,Overcast,320,2012-11-07 13:55:00
8:15 AM,46.2,41.0,82,29.99,10.0,NW,5.8,-,N/A,,Overcast,310,2012-11-07 14:15:00
8:35 AM,46.6,41.2,81,29.99,10.0,NW,5.8,-,N/A,,Overcast,320,2012-11-07 14:35:00
8:55 AM,46.9,41.2,80,29.99,10.0,NW,8.1,-,N/A,,Overcast,320,2012-11-07 14:55:00
9:15 AM,47.3,40.8,78,29.99,10.0,NW,9.2,-,N/A,,Mostly Cloudy,320,2012-11-07 15:15:00
9:35 AM,47.7,40.5,76,30.01,10.0,NW,6.9,16.1,N/A,,Overcast,310,2012-11-07 15:35:00
9:55 AM,47.8,40.1,75,30.01,10.0,NW,9.2,16.1,N/A,,Overcast,320,2012-11-07 15:55:00
10:15 AM,47.8,39.6,73,30.02,10.0,NW,9.2,16.1,N/A,,Overcast,320,2012-11-07 16:15:00
10:35 AM,47.3,39.7,75,30.03,10.0,North,10.4,-,N/A,,Overcast,350,2012-11-07 16:35:00
10:55 AM,47.5,40.3,76,30.03,10.0,North,12.7,17.3,N/A,,Overcast,350,2012-11-07 16:55:00
11:15 AM,46.4,39.0,75,30.03,10.0,NNE,10.4,-,N/A,,Overcast,20,2012-11-07 17:15:00
11:35 AM,45.9,39.2,78,30.03,10.0,North,6.9,-,N/A,,Overcast,10,2012-11-07 17:35:00
11:55 AM,48.7,39.9,72,30.03,10.0,North,9.2,-,N/A,,Overcast,350,2012-11-07 17:55:00
12:15 PM,47.5,39.2,73,30.03,10.0,North,8.1,-,N/A,,Overcast,360,2012-11-07 18:15:00
12:35 PM,47.8,39.2,72,30.03,10.0,NNW,8.1,-,N/A,,Overcast,340,2012-11-07 18:35:00
12:55 PM,47.8,38.5,70,30.04,10.0,NNW,9.2,-,N/A,,Overcast,340,2012-11-07 18:55:00
1:15 PM,47.5,38.8,72,30.04,10.0,North,8.1,-,N/A,,Overcast,350,2012-11-07 19:15:00
1:35 PM,47.8,39.2,72,30.05,10.0,NNW,9.2,-,N/A,,Overcast,340,2012-11-07 19:35:00
1:55 PM,47.3,38.7,72,30.05,10.0,North,6.9,-,N/A,,Overcast,350,2012-11-07 19:55:00
2:15 PM,48.2,38.8,70,30.05,10.0,North,6.9,-,N/A,,Overcast,350,2012-11-07 20:15:00
2:35 PM,48.6,39.2,70,30.06,10.0,NW,6.9,-,N/A,,Overcast,320,2012-11-07 20:35:00
2:55 PM,48.4,38.3,68,30.07,10.0,NNW,9.2,-,N/A,,Overcast,330,2012-11-07 20:55:00
3:15 PM,48.7,39.0,69,30.07,10.0,NNW,4.6,-,N/A,,Overcast,330,2012-11-07 21:15:00
3:35 PM,48.6,38.3,68,30.08,10.0,NNW,6.9,-,N/A,,Overcast,330,2012-11-07 21:35:00
3:55 PM,48.9,37.9,66,30.09,10.0,NNW,6.9,-,N/A,,Overcast,330,2012-11-07 21:55:00
4:15 PM,48.6,37.8,66,30.10,10.0,Calm,Calm,-,N/A,,Overcast,0,2012-11-07 22:15:00
4:35 PM,48.2,38.3,69,30.10,10.0,Calm,Calm,-,N/A,,Overcast,0,2012-11-07 22:35:00
4:55 PM,47.8,37.8,68,30.11,10.0,NW,3.5,-,N/A,,Overcast,320,2012-11-07 22:55:00
5:15 PM,47.1,37.6,69,30.11,10.0,NW,4.6,-,N/A,,Mostly Cloudy,310,2012-11-07 23:15:00
5:35 PM,46.0,38.3,74,30.12,10.0,Calm,Calm,-,N/A,,Mostly Cloudy,0,2012-11-07 23:35:00
5:55 PM,46.4,38.3,73,30.12,10.0,Calm,Calm,-,N/A,,Overcast,0,2012-11-07 23:55:00
6:15 PM,45.5,38.5,76,30.13,10.0,Calm,Calm,-,N/A,,Overcast,0,2012-11-08 00:15:00
6:35 PM,45.9,38.8,76,30.14,10.0,Calm,Calm,-,N/A,,Overcast,0,2012-11-08 00:35:00
6:55 PM,45.9,39.2,78,30.14,10.0,Calm,Calm,-,N/A,,Overcast,0,2012-11-08 00:55:00
7:15 PM,45.5,39.2,79,30.14,10.0,Calm,Calm,-,N/A,,Overcast,0,2012-11-08 01:15:00
7:35 PM,45.9,39.2,78,30.14,10.0,Calm,Calm,-,N/A,,Overcast,0,2012-11-08 01:35:00
7:55 PM,45.5,38.8,78,30.15,10.0,Calm,Calm,-,N/A,,Overcast,0,2012-11-08 01:55:00
8:15 PM,45.5,38.8,78,30.16,10.0,NW,3.5,-,N/A,,Overcast,310,2012-11-08 02:15:00
8:55 PM,44.8,38.3,78,30.17,10.0,NNW,3.5,-,N/A,,Mostly Cloudy,330,2012-11-08 02:55:00
9:15 PM,43.0,37.2,80,30.17,10.0,NW,4.6,-,N/A,,Scattered Clouds,320,2012-11-08 03:15:00
9:35 PM,42.8,37.2,81,30.17,10.0,Calm,Calm,-,N/A,,Clear,0,2012-11-08 03:35:00
9:55 PM,42.6,36.7,79,30.17,10.0,Calm,Calm,-,N/A,,Clear,0,2012-11-08 03:55:00
10:15 PM,38.8,35.6,88,30.17,10.0,Calm,Calm,-,N/A,,Clear,0,2012-11-08 04:15:00
10:35 PM,37.6,37.6,100,30.17,7.0,Calm,Calm,-,N/A,,Clear,0,2012-11-08 04:35:00
10:55 PM,37.6,37.6,100,30.17,7.0,Calm,Calm,-,N/A,,Clear,0,2012-11-08 04:55:00
11:15 PM,37.4,37.4,100,30.17,7.0,Calm,Calm,-,N/A,,Clear,0,2012-11-08 05:15:00
11:55 PM,36.0,36.0,100,30.18,4.0,Calm,Calm,-,N/A,,Clear,0,2012-11-08 05:55:00